Location: Dalton Gardens
(47.7327°N, 116.7697°W)
Time: 01:55:10
(UTC+00:00)

BlueWalker 3 - Pass Details

Date: 04 December 2022
Orbit: 499 x 517 km, 53.2° (Epoch: 26 January)

Event Time Altitude Azimuth Distance (km) Brightness Sun altitude
Rises 01:03:32 0° 282° (WNW) 2,634 6.6 -10.9°
Reaches altitude 10° 01:05:52 10° 291° (WNW) 1,743 5.4 -11.3°
Maximum altitude 01:09:32 36° 359° (N) 831 2.9 -11.8°
Enters shadow 01:11:54 18° 56° (ENE) 1,287 3.4 -12.2°
